Wind_Speed
20 21 21 20 17 16 16 17 19 19 18 18 17 15 15 15 14 14 10 10 10 8 8 8 5 6 4 5 7 3 4 2 2 6 6 11 4 7 9 13 10 7 16 15 16
19 22 16 22 20 17 16 14 15 17 18 18 16 16 14 13 13 16 15 14 13 12 10 9 7 8 5 5 5 4 3 1 3 4 6 10 10 10 7 13 11 17 16 16 16
20 20 23 17 18 20 17 15 14 13 15 17 18 16 12 10 9 11 14 17 15 12 12 8 6 5 4 5 4 4 1 0 4 11 16 10 10 6 14 3 17 21 19 17 15
20 19 24 20 18 17 19 16 15 13 12 13 16 17 15 10 6 3 10 13 14 15 13 8 1 1 2 2 3 3 6 6 2 6 7 8 10 3 3 4 18 18 17 15 13
23 19 19 24 20 18 18 19 16 14 12 12 12 14 16 12 9 6 1 7 13 15 14 9 6 3 2 3 4 2 3 5 5 4 6 4 6 4 10 15 22 19 16 13 11
22 19 18 21 22 22 18 19 17 16 14 12 12 15 18 7 10 11 9 2 6 12 15 14 4 4 3 3 1 1 4 3 2 4 4 3 2 1 12 11 16 18 16 16 14
19 24 17 20 22 20 21 18 20 18 16 13 13 16 18 18 9 16 13 7 5 10 11 16 8 6 2 1 2 3 3 2 2 3 2 2 5 8 15 10 15 16 14 15 14
19 22 19 19 22 22 21 20 19 20 17 14 12 15 8 16 11 11 16 14 7 12 9 12 12 7 1 3 4 3 4 1 4 7 4 6 6 10 20 17 17 16 18 17 16
21 18 21 18 20 22 21 20 17 18 18 15 15 12 7 10 20 15 13 18 9 11 9 10 11 4 6 5 3 3 2 5 5 11 5 6 4 9 10 16 26 23 21 18 15
18 19 18 21 20 22 21 20 19 18 23 19 16 7 10 14 23 21 13 15 13 15 9 8 5 3 2 4 7 7 4 3 5 4 7 5 6 8 18 11 9 12 15 15 15
19 21 20 22 24 23 22 19 11 9 17 8 17 6 4 10 13 22 22 20 13 14 5 7 4 9 14 10 5 6 4 4 5 5 3 5 6 10 21 18 19 20 19 19 18
19 20 21 20 22 22 24 23 19 3 8 12 10 8 16 14 7 17 24 13 12 7 8 3 8 6 7 6 7 5 3 4 5 2 2 4 9 11 12 17 27 30 25 26 23
19 20 24 20 20 22 20 29 17 10 4 10 22 13 13 15 5 24 24 10 5 10 9 7 4 15 8 7 10 6 6 4 5 2 2 4 8 9 10 27 29 30 32 29 27
18 22 24 19 18 21 31 19 17 9 3 8 9 13 11 10 4 24 26 10 6 11 8 7 9 15 6 11 7 10 6 4 3 4 3 3 6 6 7 9 13 30 37 35 29
19 22 28 22 8 16 19 20 15 11 7 13 10 12 16 13 18 16 28 11 6 6 6 7 9 11 13 5 7 3 5 7 4 2 2 2 4 6 3 5 8 20 31 32 29
22 23 27 25 17 12 7 24 11 6 8 7 13 17 14 12 8 13 15 7 2 1 2 5 1 4 8 6 7 7 5 3 3 2 7 8 8 4 6 9 5 8 22 21 18
24 24 29 26 22 14 10 12 1 5 5 7 7 15 19 11 6 7 12 9 7 6 6 3 4 4 6 6 4 7 8 1 1 4 6 4 9 13 6 7 4 11 14 19 26
25 23 23 22 16 14 11 2 6 3 3 4 7 16 16 12 7 6 15 14 10 3 6 8 4 9 5 7 7 13 11 5 7 5 3 4 8 6 8 17 16 9 13 24 32
29 24 22 18 16 18 10 3 3 2 5 3 9 11 8 11 7 7 14 17 15 16 7 8 5 5 7 5 11 6 9 5 2 3 2 4 6 8 8 5 6 13 23 29 29
36 27 20 18 15 14 3 2 1 3 3 6 3 7 13 16 8 17 14 14 7 17 7 5 3 1 7 5 4 6 7 4 3 3 4 5 5 7 2 8 6 9 26 31 30
34 11 15 16 17 9 1 2 2 4 2 1 5 3 10 10 18 14 12 8 24 17 19 4 4 2 6 7 14 6 4 5 4 5 5 2 6 8 17 6 8 14 25 29 30
16 4 17 17 4 2 3 3 2 3 2 3 4 2 4 10 16 14 17 14 25 23 22 12 4 5 9 3 4 18 12 11 6 5 5 1 7 3 9 5 5 8 18 28 32
9 9 16 19 3 1 2 2 3 3 2 3 2 4 4 3 6 20 7 14 17 21 13 12 6 3 1 4 3 6 13 12 10 2 6 4 11 6 14 7 9 9 13 22 31
8 3 4 6 3 6 4 3 3 3 2 3 2 3 2 1 4 6 17 6 22 23 23 23 4 16 17 11 8 9 13 19 16 7 11 15 26 17 9 8 9 7 10 15 29
6 2 4 4 2 2 2 4 3 2 4 6 2 5 5 4 5 9 7 11 10 12 19 13 12 11 15 3 8 10 15 17 20 24 11 23 21 24 16 8 20 27 26 12 23
5 4 4 3 12 4 1 3 4 4 4 5 6 1 5 5 8 7 3 4 7 9 12 9 6 8 14 10 9 4 10 18 23 23 18 24 21 20 18 10 11 17 22 22 22
10 10 4 3 3 4 4 6 5 6 10 16 9 1 8 14 14 16 20 15 9 7 14 13 9 6 14 7 5 7 21 16 13 20 18 19 26 23 20 16 21 25 29 35 35
Wind_Direction
242 243 228 230 229 224 224 221 224 229 234 239 241 247 254 258 260 263 261 244 254 266 287 298 324 336 15 348 341 337 58 315 7 137 166 139 112 70 97 103 78 103 140 143 144
245 243 235 222 226 224 223 220 220 224 229 235 238 238 246 255 263 259 251 251 253 266 275 290 313 353 357 330 344 38 100 9 333 133 146 137 135 138 123 113 97 110 128 141 146
245 241 239 216 221 222 222 217 221 219 222 226 229 232 235 245 273 267 250 249 253 254 262 274 296 340 323 338 334 347 91 224 37 82 139 125 124 136 143 165 166 155 151 150 150
247 241 235 231 217 216 219 218 220 220 216 220 220 220 224 217 208 236 225 230 235 237 241 243 206 272 280 329 302 38 351 30 128 77 107 117 150 160 122 130 179 164 161 157 161
242 242 235 231 220 212 215 215 215 218 219 217 210 205 204 207 221 207 330 236 224 219 219 206 193 201 261 303 353 128 331 54 80 94 58 115 131 158 142 128 149 152 156 159 171
237 241 237 231 223 219 215 216 214 212 215 213 204 195 195 215 225 225 229 243 190 204 205 193 166 212 272 290 60 76 16 244 110 64 17 45 304 48 218 173 172 180 179 179 186
235 234 240 229 220 217 215 216 216 210 212 206 201 196 199 217 214 218 210 208 181 175 195 193 197 191 142 348 13 53 52 59 144 143 292 193 300 235 220 205 198 203 216 210 217
233 229 236 226 216 210 211 218 222 208 204 202 196 187 231 221 203 210 206 202 172 170 169 188 196 183 109 116 41 52 60 127 254 181 223 146 255 251 239 232 231 208 210 216 211
227 224 224 226 212 208 206 209 220 206 195 192 184 174 241 208 217 208 198 202 181 156 164 182 181 160 124 106 43 355 199 198 277 216 163 171 230 259 293 260 233 226 225 217 217
231 223 227 226 212 202 197 199 206 208 201 183 180 193 226 212 210 206 192 173 187 154 138 160 160 120 118 112 194 191 212 260 212 282 184 197 235 268 272 290 244 218 221 221 230
227 216 215 219 214 193 188 180 181 208 180 206 179 212 199 179 192 201 178 169 173 158 153 192 150 192 191 192 155 148 164 230 268 255 180 232 244 257 265 275 252 252 246 246 241
223 219 208 220 203 195 185 185 188 201 186 217 171 169 170 169 154 184 174 164 177 176 149 147 226 203 178 189 212 234 195 236 296 115 127 281 273 269 261 259 248 243 234 237 234
217 210 207 205 205 203 192 190 183 177 170 184 191 171 171 177 182 179 184 177 169 171 182 166 237 186 199 188 203 213 194 203 205 351 344 334 282 250 246 238 242 240 237 235 235
214 203 205 204 183 198 223 192 196 181 214 183 182 199 187 173 206 185 187 160 183 186 174 227 246 186 191 214 176 217 183 209 250 48 240 100 289 276 267 253 234 233 237 236 235
210 198 204 204 203 198 202 222 225 170 210 165 161 189 188 179 144 188 188 203 181 165 170 209 197 186 199 179 174 194 159 198 197 262 332 258 305 266 256 276 255 229 229 232 234
201 196 198 195 206 208 198 226 256 194 212 167 151 168 155 190 169 139 181 196 191 181 96 207 139 161 172 170 157 149 94 71 79 111 254 218 202 222 217 227 243 238 229 230 212
198 192 200 203 204 207 206 181 281 261 147 159 166 174 173 171 136 148 170 184 169 149 207 166 205 182 152 147 128 134 124 144 221 211 231 235 210 253 266 263 207 219 221 216 191
185 181 188 197 204 176 148 110 227 232 197 176 157 166 187 142 182 158 159 190 231 214 149 171 188 166 186 182 181 184 171 164 200 207 233 191 225 261 227 250 257 201 187 180 181
162 167 178 190 190 187 145 206 213 329 326 179 141 168 187 187 158 154 190 194 196 197 159 172 235 127 175 166 157 180 199 166 79 34 59 232 290 304 248 264 140 161 166 174 184
153 151 160 172 176 174 91 350 19 38 7 336 148 171 181 189 177 186 178 199 210 203 219 186 137 24 184 151 228 168 155 199 155 186 250 252 252 233 210 234 204 173 180 187 189
143 119 162 175 165 145 149 157 76 91 125 278 6 247 214 184 196 191 199 204 197 192 209 206 135 232 141 199 189 177 182 204 171 172 191 239 253 216 220 190 233 229 202 195 194
123 93 151 164 90 119 145 137 250 166 158 155 204 125 330 216 201 194 210 198 198 186 198 194 151 169 197 170 267 219 201 177 191 216 222 237 257 185 141 157 196 254 227 210 210
87 95 149 159 135 4 353 344 224 207 187 188 219 117 98 341 277 206 201 220 185 191 184 181 199 148 170 285 349 195 225 217 228 59 215 180 254 236 255 316 312 249 241 224 212
103 101 102 162 139 132 140 234 265 216 222 201 227 139 81 277 301 350 244 213 212 198 198 176 166 210 220 228 145 200 192 214 210 218 225 225 254 249 250 276 307 302 239 221 215
67 99 148 164 218 106 128 181 163 215 222 202 288 226 200 190 350 318 340 266 214 220 194 177 219 206 239 131 179 199 197 199 212 227 210 245 241 253 253 251 261 265 270 245 214
97 120 99 76 147 93 311 269 211 292 177 195 220 159 189 225 189 247 333 352 253 225 198 183 228 189 233 216 204 169 200 207 213 228 235 252 266 261 259 243 250 270 283 274 260
88 104 108 127 102 97 224 224 229 197 259 238 229 159 237 227 251 241 207 226 237 269 236 183 201 160 237 171 138 221 218 212 217 227 221 234 244 262 265 257 253 254 257 260 267
Height
1496 1498 1500 1503 1506 1508 1511 1513 1516 1519 1521 1523 1525 1527 1531 1533 1534 1535 1536 1538 1538 1539 1539 1539 1538 1537 1536 1535 1534 1533 1542 1546 1538 1542 1543 1542 1543 1546 1549 1550 1554 1556 1558 1561 1564
1493 1495 1497 1500 1503 1506 1508 1510 1513 1515 1517 1520 1522 1526 1529 1530 1532 1532 1535 1535 1536 1538 1539 1539 1538 1538 1536 1536 1535 1534 1544 1540 1535 1535 1538 1540 1543 1546 1550 1552 1557 1558 1560 1562 1564
1489 1491 1493 1496 1499 1502 1505 1507 1511 1513 1515 1517 1521 1524 1527 1528 1530 1528 1531 1533 1534 1536 1538 1540 1540 1540 1539 1537 1537 1537 1542 1536 1538 1536 1536 1539 1543 1545 1548 1552 1552 1555 1559 1562 1564
1486 1488 1490 1493 1495 1499 1502 1505 1509 1511 1513 1516 1519 1521 1525 1528 1532 1526 1527 1529 1531 1534 1537 1539 1540 1540 1540 1539 1538 1540 1538 1538 1538 1538 1539 1540 1543 1545 1547 1549 1549 1552 1556 1560 1563
1481 1484 1486 1489 1491 1496 1500 1503 1506 1509 1511 1515 1516 1519 1523 1526 1525 1526 1526 1527 1528 1531 1535 1537 1539 1540 1541 1539 1538 1539 1539 1540 1540 1540 1541 1541 1543 1545 1547 1549 1550 1553 1555 1558 1561
1478 1481 1483 1486 1488 1493 1497 1501 1504 1507 1511 1513 1515 1517 1521 1523 1523 1524 1526 1526 1526 1529 1532 1535 1537 1539 1539 1539 1540 1540 1540 1540 1541 1543 1543 1544 1545 1545 1545 1547 1548 1550 1553 1556 1559
1473 1476 1479 1482 1485 1490 1494 1498 1501 1506 1509 1512 1515 1516 1519 1518 1519 1521 1523 1526 1526 1528 1530 1533 1535 1538 1537 1537 1539 1538 1541 1541 1541 1543 1545 1545 1548 1546 1543 1546 1547 1547 1548 1552 1555
1469 1472 1476 1479 1483 1486 1491 1496 1500 1503 1507 1511 1514 1516 1516 1515 1517 1519 1521 1524 1525 1526 1529 1532 1534 1536 1537 1538 1539 1542 1544 1551 1543 1542 1544 1546 1554 1541 1542 1544 1544 1545 1545 1548 1551
1465 1469 1473 1476 1480 1484 1489 1494 1497 1498 1505 1509 1512 1515 1514 1511 1513 1517 1519 1522 1524 1526 1529 1531 1534 1536 1538 1540 1548 1546 1555 1551 1546 1538 1540 1543 1548 1539 1540 1540 1539 1541 1542 1544 1547
1462 1466 1469 1474 1477 1482 1487 1491 1495 1500 1503 1508 1511 1517 1510 1507 1509 1513 1518 1520 1524 1525 1529 1532 1534 1536 1538 1543 1554 1551 1552 1547 1548 1537 1539 1541 1542 1537 1537 1539 1538 1538 1539 1540 1542
1459 1463 1467 1470 1475 1479 1484 1489 1497 1500 1495 1498 1496 1502 1500 1506 1509 1510 1516 1519 1523 1524 1528 1530 1534 1536 1532 1532 1534 1538 1543 1547 1542 1536 1537 1540 1541 1537 1536 1536 1536 1535 1535 1536 1538
1455 1460 1463 1469 1470 1474 1480 1484 1488 1492 1495 1494 1496 1501 1502 1504 1507 1509 1514 1517 1520 1522 1525 1531 1531 1529 1531 1533 1536 1538 1541 1545 1541 1535 1538 1541 1540 1535 1534 1532 1531 1530 1531 1530 1533
1452 1457 1462 1465 1469 1473 1474 1481 1486 1488 1491 1491 1495 1496 1499 1503 1504 1506 1510 1513 1517 1521 1520 1525 1524 1526 1529 1531 1535 1537 1541 1542 1544 1539 1538 1539 1537 1532 1523 1521 1523 1523 1523 1524 1526
1450 1455 1459 1462 1470 1469 1473 1478 1483 1486 1490 1489 1486 1490 1497 1501 1503 1504 1508 1513 1516 1518 1520 1523 1521 1523 1526 1528 1530 1537 1534 1537 1541 1546 1554 1543 1554 1530 1520 1518 1515 1514 1514 1516 1520
1446 1452 1456 1462 1463 1469 1472 1477 1477 1485 1472 1478 1483 1489 1493 1498 1498 1504 1508 1511 1511 1511 1516 1518 1518 1522 1523 1524 1527 1532 1531 1537 1539 1546 1548 1545 1556 1529 1518 1516 1510 1504 1506 1509 1513
1443 1450 1455 1461 1465 1469 1471 1476 1478 1479 1465 1472 1474 1479 1488 1493 1496 1500 1506 1510 1511 1511 1513 1515 1514 1515 1515 1520 1523 1528 1534 1538 1542 1548 1550 1545 1549 1528 1517 1507 1502 1500 1502 1505 1508
1440 1448 1453 1459 1464 1468 1470 1477 1477 1460 1464 1470 1467 1473 1479 1483 1491 1492 1499 1507 1509 1516 1517 1515 1515 1513 1513 1520 1522 1526 1538 1558 1562 1555 1549 1532 1540 1507 1504 1498 1499 1498 1498 1501 1505
1439 1447 1453 1460 1464 1467 1469 1477 1473 1467 1462 1461 1465 1471 1474 1480 1485 1489 1495 1500 1501 1500 1508 1515 1524 1512 1511 1514 1518 1520 1528 1540 1550 1547 1539 1532 1529 1509 1495 1493 1493 1494 1495 1498 1502
1438 1447 1454 1460 1463 1467 1470 1469 1468 1465 1469 1460 1464 1470 1474 1474 1477 1485 1489 1489 1490 1491 1498 1506 1506 1501 1505 1508 1512 1522 1524 1523 1533 1554 1546 1529 1515 1500 1493 1491 1492 1491 1494 1498 1501
1434 1446 1455 1460 1463 1467 1471 1469 1470 1471 1472 1468 1463 1463 1467 1470 1476 1478 1484 1479 1484 1486 1487 1493 1505 1502 1504 1507 1510 1512 1516 1528 1535 1549 1555 1525 1520 1505 1493 1492 1492 1493 1492 1493 1497
1437 1448 1457 1461 1466 1470 1472 1474 1473 1475 1475 1476 1474 1467 1463 1468 1464 1471 1472 1472 1473 1480 1487 1490 1494 1509 1504 1505 1505 1512 1515 1515 1517 1530 1535 1536 1512 1487 1482 1487 1489 1488 1489 1491 1493
1437 1450 1457 1462 1468 1470 1474 1475 1474 1472 1476 1478 1477 1473 1476 1462 1462 1467 1463 1462 1465 1473 1480 1483 1490 1508 1499 1499 1500 1499 1499 1504 1511 1521 1517 1516 1504 1480 1480 1484 1485 1485 1486 1488 1490
1440 1452 1458 1462 1471 1478 1472 1471 1474 1473 1470 1473 1470 1470 1474 1475 1466 1457 1460 1458 1461 1468 1472 1478 1488 1505 1501 1503 1503 1499 1503 1500 1504 1511 1512 1518 1481 1475 1477 1481 1481 1483 1484 1484 1487
1441 1455 1461 1464 1465 1469 1478 1478 1476 1466 1468 1471 1469 1465 1471 1470 1472 1465 1457 1457 1460 1461 1466 1470 1478 1473 1473 1472 1490 1499 1496 1496 1497 1505 1499 1498 1475 1475 1480 1480 1480 1482 1482 1482 1483
1443 1454 1457 1463 1466 1467 1468 1470 1470 1475 1471 1470 1471 1470 1468 1470 1470 1470 1470 1460 1458 1458 1462 1465 1469 1473 1467 1472 1476 1478 1483 1492 1496 1486 1495 1475 1481 1468 1475 1478 1478 1479 1480 1481 1480
1447 1452 1457 1460 1463 1467 1471 1475 1470 1473 1469 1468 1471 1464 1466 1467 1462 1471 1477 1475 1464 1457 1456 1460 1468 1470 1469 1471 1476 1480 1482 1480 1478 1480 1486 1476 1475 1460 1466 1471 1473 1474 1476 1476 1476
1451 1454 1456 1464 1467 1472 1472 1469 1467 1466 1460 1458 1461 1467 1464 1462 1462 1464 1468 1471 1471 1474 1454 1453 1457 1467 1461 1469 1475 1481 1471 1472 1475 1470 1471 1477 1458 1455 1456 1462 1465 1467 1468 1466 1467